COSMOS 1275 DEB

Satellite information

Favourite Embed

Satellite Type and Status

DEBRISIN ORBIT

Key statistics

Satellite COSMOS 1275 DEB at a glance.

Uptime

16263

Days in orbit

Revolutions

≈ 14.1

Per day

Orbit

LEO

Low Earth Orbit

Inclination

83.1

Latest

Satellite identification and parameters

Extended collection of information and parameters for COSMOS 1275 DEB.

Object identification

Identified? True

Debris? True

Object name: COSMOS 1275 DEB

International designator: 1981-053ET

Object number (NORAD): 13021

Object ID (CCSDS): 13021

Country: COMMONWEALTH OF INDEPENDENT STATES (CIS)

Current information (Y/N): Y

RCS size: SMALL

Orbital parameters

Period: 102.445 minutes

Inclination: 83.1433 deg

SMA: 7252.505 km

Apoapsis: 888.89 km

Periapsis: 859.85 km

RAAN: 70.0448 deg

Eccentricy: 0.00200202

Argument of periapsis: 31.5211 deg

Mean anomaly: 21.7631 deg

Mean motion: 14.05629036 rev/day

Mean motion (dot): 0.00002691 rev/day2

B* drag term: 0.0016403691 1/REarth

Two-line elements (TLE)

Creation date: Dec. 12, 2025, 10:14 a.m.

Reference frame: TEME

Reference center: EARTH

Epoch: Dec. 12, 2025, 5:56 a.m. UTC

TLE line 0: 0 COSMOS 1275 DEB

TLE line 1: 1 13021U 81053ET 25346.24780094 .00002691 00000-0 16404-2 0 9993

TLE line 2: 2 13021 83.1433 70.0448 0020020 31.5211 21.7631 14.05629036233410

Live tracking on map

Real-time ground track for satellite COSMOS 1275 DEB.

In-orbit conjunctions

A list of the most updated potential collisions computed for object COSMOS 1275 DEB.

Target Orbit TCA Probability of collision Miss distance Type
FENGYUN 1C DEB SSO 2025-09-07 16:10:35 0.0001388636 342.0 (m) DEBRIS
RADCAL LEO 2025-04-27 03:29:33 0.0001291492 247.0 (m) PAYLOAD
COSMOS 2251 DEB LEO 2024-11-09 21:23:41 0.002123764 385.0 (m) DEBRIS

Associated space launch

Navigation satellite providing location information for the Tsiklon-B navigation system

COSMOS 1275 DEB was lifted into orbit during the mission ‘Kosmos-3M | Parus 27’, on board a Kosmos-3M space rocket.

The launch took place on June 4, 1981, 3:41 p.m. from 132/2.

For more information about the launch, click the button.

Launch to space Kosmos-3M | Parus 27
Kosmos-3M | Parus 27

Agency: N/A

Status: Launch Successful

Launch date: June 4, 1981, 3:41 p.m. UTC

Rocket: Kosmos-3M

Launch pad: 132/2

Location: Plesetsk Cosmodrome, Russian Federation

...

Latest news about this satellite

There are no fresh news available about this satellite. Check back as we update our databases every day.


Newsletter sign-up

Weekly statistics, charts and insights to help you stay on top of the space industry.